Regional Weather Roundup
Issued by NWS

Home | Current Version | Previous Version | Graphics & Text | Print | Product List | Glossary On
Versions: 1 2 3 4 5 6 7 8 9 10 11 12 13 14 15 16 17 18 19 20 21 22 23 24 25 26 27
000
ASUS45 KSLC 240310
RWRUT

UTAH REGIONAL WEATHER ROUNDUP
NATIONAL WEATHER SERVICE SALT LAKE CITY UT
800 PM MST TUE JAN 23 2018

UTZ001>011-023>025-240400-

NORTHERN UTAH

CITY           SKY/WX    TMP DP  RH WIND       PRES   REMARKS
BRIGHAM CITY   CLEAR     30  26  82 CALM      30.33S
HILL AFB       CLEAR     31  21  66 E8        30.30S WCI  24
LOGAN          CLEAR     23  18  81 NE5       30.31S WCI  17
OGDEN          CLEAR     31  23  72 S7        30.30F WCI  24
SALT LAKE CITY PTCLDY    34  25  69 SE6       30.31S WCI  29
TOOELE VALLEY  CLEAR     23  19  86 CALM      30.32R
WENDOVER       CLEAR     25  20  81 SW3       30.31S
HEBER CITY       N/A     18  12  79 CALM      30.30S
WEST JORDAN    CLEAR     31  23  71 S8        30.31S WCI  24

$$

UTZ011>015-024>027-240400-

CENTRAL/NORTHEAST UTAH

CITY           SKY/WX    TMP DP  RH WIND       PRES   REMARKS
PROVO AIRPORT  PTCLDY    23  21  92 CALM      30.34S
MOAB/CANYONLAN CLEAR     24  19  81 CALM      30.36R
DELTA          MOCLDY    19  19 100 CALM      30.33S
PRICE          CLEAR     21  16  81 N7        30.34R WCI  12
ROOSEVELT      CLEAR     19  14  79 CALM      30.41R
VERNAL         CLEAR     16  10  77 NW5       30.37S WCI   9

$$

UTZ013>016-019>022-027-240400-

SOUTHERN UTAH

CITY           SKY/WX    TMP DP  RH WIND       PRES   REMARKS
BRYCE CANYON   CLEAR     16  12  84 W5        30.34R WCI   9
CEDAR CITY     PTCLDY    21  18  88 S3        30.30R
MILFORD        PTCLDY     9   8  96 SE6       30.33R WCI  -1
ST GEORGE      CLEAR     42  29  59 S3        30.31R
HANKSVILLE     CLEAR     32  14  47 NE7       30.40R WCI  26
BLANDING         N/A     25  17  73 N3        30.41S

$$

REGIONAL REPORTS     COLORADO/ARIZONA

CITY           SKY/WX    TMP DP  RH WIND       PRES   REMARKS
CRAIG, CO      CLEAR      6   1  80 CALM      30.35S
GRAND JUNCTION CLEAR     23  18  81 E6        30.38R WCI  16
RIFLE, CO      CLEAR     26  18  71 E7        30.37R WCI  18
MONTROSE, CO   CLEAR     23  11  60 S8        30.39R WCI  14
CORTEZ, CO     CLEAR     21  16  81 NE9       30.34R WCI  11
COLORADO CITY    N/A     30  21  69 CALM      30.34R
PAGE, AZ       CLEAR     36  17  46 CALM      30.34R
GRAND CANYON   CLEAR     21  14  74 CALM      30.33R
KINGMAN, AZ    CLEAR    N/A N/A N/A E10       30.26R
FLAGSTAFF, AZ  CLEAR     23   8  52 CALM      30.32R

$$

REGIONAL REPORTS    NEVADA/IDAHO/WYOMING

CITY           SKY/WX    TMP DP  RH WIND       PRES   REMARKS
LAS VEGAS, NV  PTCLDY    54  25  32 CALM      30.25S
ELY, NY        CLEAR     16  11  80 S12       30.28S WCI   3
ELKO, NV       MOCLDY    31  26  82 E7        30.22S WCI  24
POCATELLO, ID  CLEAR     34  23  64 S14       30.25F WCI  25
BURLEY, ID     PTCLDY    33  26  75 E3        30.21F
FORT BRIDGER,    N/A     23  17  79 W14       30.29F WCI  10
EVANSTON, WY   CLEAR     22  16  78 S5        30.27S WCI  16
ROCK SPRINGS,  CLEAR     18  12  77 SW10      30.27S WCI   6

$$




USA.gov is the U.S. government's official web portal to all federal, state and local government web resources and services.